This is the latest recevied weather packets stored in our database for station/object K1TTC. If no packets are shown the sender has not sent any weather packets the latest 10 day(s).
| Time | Temp. | Humidity | Pressure | Rain* | Wind** | Luminosity | Snow |
|---|---|---|---|---|---|---|---|
| 1777773019 | 10° C | 72% | 1012.1 hPa | 0 mm | - | 0 W/m² | - |
| 1777772415 | 10° C | 72% | 1011.9 hPa | 0 mm | - | 0 W/m² | - |
| 1777771811 | 10° C | 72% | 1011.9 hPa | 0 mm | - | 0 W/m² | - |
| 1777771213 | 10° C | 72% | 1012.1 hPa | 0 mm | - | 0 W/m² | - |
| 1777770610 | 10° C | 71% | 1012.1 hPa | 0 mm | - | 0 W/m² | - |
| 1777770010 | 10.56° C | 71% | 1012.1 hPa | 0 mm | - | 0 W/m² | - |
| 1777769413 | 10.56° C | 71% | 1012.2 hPa | 0 mm | - | 0 W/m² | - |
| 1777768805 | 10.56° C | 71% | 1012.3 hPa | 0 mm | - | 0 W/m² | - |
| 1777768204 | 10.56° C | 70% | 1012.3 hPa | 0 mm | - | 0 W/m² | - |
| 1777767649 | 10.56° C | 70% | 1012.2 hPa | 0 mm | - | 0 W/m² | - |
| 1777767002 | 10.56° C | 70% | 1012.3 hPa | 0 mm | - | 0 W/m² | - |
| 1777766403 | 10.56° C | 69% | 1012 hPa | 0 mm | - | 0 W/m² | - |
| 1777765804 | 10.56° C | 69% | 1012 hPa | 0 mm | - | 5 W/m² | - |
| 1777765204 | 11.11° C | 68% | 1011.9 hPa | 0 mm | - | 5 W/m² | - |
| 1777764602 | 11.11° C | 68% | 1011.9 hPa | 0 mm | - | 16 W/m² | - |
| 1777764005 | 11.11° C | 67% | 1011.8 hPa | 0 mm | - | 30 W/m² | - |
| 1777763399 | 11.11° C | 67% | 1011.7 hPa | 0 mm | - | 47 W/m² | - |
| 1777762800 | 10.56° C | 67% | 1011.5 hPa | 0 mm | - | 51 W/m² | - |
| 1777762202 | 10.56° C | 67% | 1011.3 hPa | 0 mm | - | 53 W/m² | - |
| 1777761601 | 10.56° C | 67% | 1011.3 hPa | 0 mm | - | 53 W/m² | - |
| 1777761000 | 11.11° C | 67% | 1011.4 hPa | 0 mm | - | 33 W/m² | - |
| 1777760400 | 11.11° C | 67% | 1011.4 hPa | 0 mm | - | 54 W/m² | - |
| 1777759800 | 11.11° C | 67% | 1011.5 hPa | 0 mm | - | 67 W/m² | - |
| 1777759200 | 11.11° C | 66% | 1011.6 hPa | 0 mm | - | 74 W/m² | - |
| 1777758609 | 11.67° C | 66% | 1011.8 hPa | 0 mm | - | 47 W/m² | - |
* Rain latest hour (hover to see other rain measurements)
** Current wind speed in m/s (hover to see current wind gust speed)